Flag for Seychelles Weather past 2 weeks in Victoria, Seychelles

Now
75 °F

Passing clouds.


Feels Like: 75 °F
Forecast: 73 / 78 °F
Wind: 2 mph from West

Location: National Airport

Current Time: Aug 22, 2014 at 11:45:09 PM

Latest Report: Aug 22, 2014 at 9:00 PM


Visibility: N/A

Pressure: 29.89 "Hg

Humidity: 83%

Dew point: 70 °F

Location of VictoriaLocation

Historic Weather in Victoria — Graph

°F

Victoria temperature yesterday

Maximum temperature yesterday: 82 °F (at 10:00 AM)
Minimum temperature yesterday: 77 °F (at 12:00 AM)
Average temperature yesterday: 79 °F

Past Weeks' High & Low Weather Summary

 TemperatureHumidityPressure
High84 °F (Aug 8, 1:00 PM)100% (Aug 19, 7:00 AM)30.01 "Hg (Aug 19, 7:00 AM)
Low75 °F (Aug 11, 8:00 PM)62% (Aug 22, 10:00 AM)29.83 "Hg (Aug 12, 4:00 PM)
Average79 °F79%29.92 "Hg
* Reported Aug 7 9:00 PM — Aug 22 9:00 PM, Victoria, Weather by CustomWeather, © 2014

Note: Actual official high and low records may vary slightly from our data, if they occured in-between our weather recording intervals... More about our weather records

Advertising

Victoria weather history for previous 24 hours

 ConditionsComfort  
Time TempWeatherWind HumidityBarometerVisibility
9:00 PM
Aug 22
75 °FPassing clouds.2 mph83%29.89 "HgN/A
7:00 PM77 °FPassing clouds.2 mph79%29.86 "HgN/A
5:00 PM81 °FScattered clouds.9 mph70%29.83 "HgN/A
4:00 PM81 °FScattered clouds.9 mph70%29.83 "HgN/A
3:00 PM81 °FScattered clouds.12 mph66%29.83 "HgN/A
2:00 PM81 °FScattered clouds.10 mph70%29.83 "HgN/A
1:00 PM81 °FScattered clouds.12 mph66%29.86 "HgN/A
12:00 PM81 °FScattered clouds.9 mph66%29.86 "HgN/A
10:00 AM82 °FScattered clouds.10 mph62%29.89 "HgN/A
7:00 AM75 °FScattered clouds.6 mph83%29.86 "HgN/A
6:00 AM75 °FPassing clouds.5 mph83%29.86 "HgN/A
5:00 AM75 °FPassing clouds.7 mph83%29.83 "HgN/A
4:00 AM77 °FPassing clouds.6 mph79%29.83 "HgN/A
3:00 AM77 °FPassing clouds.9 mph79%29.86 "HgN/A
2:00 AM77 °FPassing clouds.9 mph79%29.86 "HgN/A
1:00 AM77 °FPassing clouds.14 mph79%29.89 "HgN/A
12:00 AM77 °FPassing clouds.12 mph79%29.89 "HgN/A
11:00 PM
Aug 21
77 °FPassing clouds.13 mph79%29.92 "HgN/A
Weather by CustomWeather, © 2014

See weather overviewHow to use our weather pages